User: anonymous   Login
Location: Unspecified
(0.0000°N, 0.0000°E)
Time: 09:12:47
(UTC+00:00)
Language:

QBEE50-LTU-OC - Orbit

View from above orbital plane
View from above orbital plane
View from above satellite
View from above satellite

Ground track
Ground track

The orbit data is extracted from the following two-line orbital elements,

1 42708U 98067LR  18267.26752155 +.00058713 +00000-0 +35532-3 0  9993
2 42708 051.6301 206.8429 0001663 121.6678 238.4485 15.77001958077479
Epoch (UTC): 24 September 2018 06:25:13
Eccentricity: 0.0001663
inclination: 51.6301°
perigee height: 338 km
apogee height: 340 km
right ascension of ascending node: 206.8429°
argument of perigee: 121.6678°
revolutions per day: 15.77001958
mean anomaly at epoch: 238.4485°
orbit number at epoch: 7747

The dashed part of the orbit path shows where the satellite is in the earth's shadow,  

DLR